FW1757 Weather Reports


time (UTC)temp
F
wind
direction
speed
knots
gust
knots
rain 1hr
in
rain 24hr
in
rain mn
in
humidity
%
barometer
mb
20260502163514 54 280 0.0 0.0 0.00 0.00 0.00 32 1014.1
20260502163015 54 280 0.0 0.0 0.00 0.00 0.00 31 1014.0
20260502162514 54 281 0.0 0.0 0.00 0.00 0.00 32 1013.9
20260502162015 54 281 0.0 0.0 0.00 0.00 0.00 32 1014.0
20260502161514 54 279 0.0 0.0 0.00 0.00 0.00 32 1014.0
20260502161013 54 290 0.0 0.0 0.00 0.00 0.00 33 1014.1
20260502160513 54 290 0.0 0.0 0.00 0.00 0.00 28 1014.0
20260502160114 54 265 0.0 0.0 0.00 0.00 0.00 30 1014.1
20260502152008 54 274 0.0 0.0 0.00 0.00 0.00 26 1013.6
20260502151508 53 282 0.0 0.0 0.00 0.00 0.00 27 1013.6
20260502151008 53 220 0.0 0.0 0.00 0.00 0.00 28 1013.4
20260502150508 53 271 0.0 0.0 0.00 0.00 0.00 27 1013.6
20260502130655 54 278 0.0 0.0 0.00 0.00 0.00 42 1012.4
20260502130103 54 238 0.0 0.0 0.00 0.00 0.00 43 1012.4
20260502123553 54 235 0.0 0.0 0.00 0.00 0.00 42 1012.2
20260502123100 54 209 0.0 0.0 0.00 0.00 0.00 44 1012.2
20260502122554 54 209 0.0 0.0 0.00 0.00 0.00 45 1012.2
20260502122051 54 257 0.0 0.0 0.00 0.00 0.00 47 1012.1
20260502121602 55 258 0.0 0.0 0.00 0.00 0.00 47 1012.2
20260502121050 55 260 0.0 0.0 0.00 0.00 0.00 47 1012.2
20260502120550 55 261 0.0 0.0 0.00 0.00 0.00 48 1012.2
20260502115551 55 233 0.0 0.0 0.00 0.00 0.00 50 1012.3
20260502115049 55 233 0.0 0.0 0.00 0.00 0.00 50 1012.1
20260502114548 55 233 0.0 0.0 0.00 0.00 0.00 50 1012.4
20260502114048 55 233 0.0 0.0 0.00 0.00 0.00 49 1012.3
20260502113551 55 286 0.0 0.0 0.00 0.00 0.00 49 1012.1
20260502113049 55 251 0.0 0.0 0.00 0.00 0.00 48 1012.4
20260502112549 55 209 0.0 0.0 0.00 0.00 0.00 46 1012.4
20260502112048 55 355 0.0 0.0 0.00 0.00 0.00 43 1011.8
20260502111555 55 184 0.0 0.0 0.00 0.00 0.00 43 1011.9
20260502111045 55 185 0.0 0.0 0.00 0.00 0.00 43 1012.4
20260502110546 55 246 0.0 0.0 0.00 0.00 0.00 45 1012.0
20260502110049 55 225 0.0 0.0 0.00 0.00 0.00 47 1012.0
20260502105544 55 214 0.0 0.0 0.00 0.00 0.00 47 1012.3
20260502105042 55 235 0.0 0.0 0.00 0.00 0.00 48 1012.3
20260502104545 55 235 0.0 0.0 0.00 0.00 0.00 51 1012.3
20260502104042 55 227 0.0 0.0 0.00 0.00 0.00 53 1012.6
20260502103541 55 226 0.0 0.0 0.00 0.00 0.00 54 1012.9
20260502103051 55 226 0.0 0.0 0.00 0.00 0.00 54 1012.9
20260502102541 55 223 0.0 0.0 0.00 0.00 0.00 55 1012.9
20260502102040 55 227 0.0 0.0 0.00 0.00 0.00 55 1012.7
20260502101603 56 234 0.0 0.0 0.00 0.00 0.00 56 1012.5
20260502101038 56 225 0.0 0.0 0.00 0.00 0.00 56 1012.6
20260502100538 56 241 0.0 0.0 0.00 0.00 0.00 57 1012.7
20260502091032 56 297 0.0 0.0 0.00 0.00 0.00 59 1013.0
20260502090532 56 222 0.0 0.0 0.00 0.00 0.00 60 1012.9
20260502071514 61 231 0.0 0.0 0.00 0.00 0.00 65 1012.8
20260502071014 61 258 0.0 0.0 0.00 0.00 0.00 65 1012.8
20260502070513 61 258 0.0 0.0 0.00 0.00 0.00 65 1012.8
20260502070020 61 273 0.0 0.0 0.00 0.00 0.00 65 1012.8
20260502065512 61 273 0.0 0.0 0.00 0.00 0.00 65 1012.9
20260502065015 62 300 0.0 0.0 0.00 0.00 0.00 64 1012.8
20260502064525 62 265 0.0 0.0 0.00 0.00 0.00 64 1012.8
20260502064011 62 292 0.0 0.0 0.00 0.00 0.00 64 1012.8
20260502063512 62 242 0.0 0.0 0.00 0.00 0.00 64 1012.8
20260502063011 62 291 0.0 0.0 0.00 0.00 0.00 63 1012.8
20260502062512 62 291 0.0 0.0 0.00 0.00 0.00 63 1012.8
20260502062014 63 245 0.0 0.0 0.00 0.00 0.00 63 1012.8
20260502061511 63 309 0.0 0.0 0.00 0.00 0.00 62 1012.6
20260502061010 63 280 0.0 0.0 0.00 0.00 0.00 62 1012.7
20260502060510 63 248 0.0 0.0 0.00 0.00 0.00 62 1012.8
20260502060011 63 248 0.0 0.0 0.00 0.00 0.00 61 1012.7
20260502055510 63 248 0.0 0.0 0.00 0.00 0.00 61 1012.7
20260502055010 64 239 0.0 0.0 0.00 0.00 0.00 61 1012.6
20260502054510 64 251 0.0 0.0 0.00 0.00 0.00 60 1012.6
20260502054016 64 258 0.0 0.0 0.00 0.00 0.00 60 1012.5
20260502053510 64 290 0.0 0.0 0.00 0.00 0.00 60 1012.6
20260502053009 64 246 0.0 0.0 0.00 0.00 0.00 60 1012.6
20260502052510 64 277 0.0 0.0 0.00 0.00 0.00 59 1012.5
20260502052009 65 257 0.0 0.0 0.00 0.00 0.00 59 1012.5
20260502051509 65 283 0.0 0.0 0.00 0.00 0.00 59 1012.5
20260502051008 65 235 0.0 0.0 0.00 0.00 0.00 59 1012.4
20260502050508 65 239 0.0 0.0 0.00 0.00 0.00 58 1012.2
20260502050011 65 239 0.0 0.0 0.00 0.00 0.00 58 1012.1
20260502045508 66 242 0.0 0.0 0.00 0.00 0.00 57 1012.3
20260502045008 66 242 0.0 0.0 0.00 0.00 0.00 57 1012.4
20260502044507 66 252 0.0 0.0 0.00 0.00 0.00 57 1012.4
20260502044007 66 261 0.0 0.0 0.00 0.00 0.00 57 1012.4
20260502043507 66 253 0.0 0.0 0.00 0.00 0.00 57 1012.2
20260502043129 66 246 0.0 0.0 0.00 0.00 0.00 57 1012.3
20260502042507 66 249 0.0 0.0 0.00 0.00 0.00 57 1012.2
20260502042007 67 297 0.0 0.0 0.00 0.00 0.00 57 1012.1
20260502041506 67 302 0.0 0.0 0.00 0.00 0.00 57 1012.2
20260502041005 67 230 0.0 0.0 0.00 0.00 0.00 57 1012.2
20260502040509 67 254 0.0 0.0 0.00 0.00 0.00 57 1012.0
20260502040011 67 246 0.0 0.0 0.00 0.00 0.00 56 1011.6
20260502035507 67 320 0.0 0.0 0.00 0.00 0.00 56 1011.4
20260502035005 67 282 0.0 0.0 0.00 0.00 0.00 56 1011.8
20260502034505 67 282 0.0 0.0 0.00 0.00 0.00 56 1012.1
20260502034004 68 254 0.0 0.0 0.00 0.00 0.00 55 1012.2
20260502033504 68 255 0.0 0.0 0.00 0.00 0.00 55 1012.1
20260502033004 68 255 0.0 0.0 0.00 0.00 0.00 55 1012.0
20260502032505 68 244 0.0 0.0 0.00 0.00 0.00 55 1012.1
20260502032004 68 251 0.0 0.0 0.00 0.00 0.00 55 1012.1
20260502031504 68 289 0.0 0.0 0.00 0.00 0.00 54 1011.8
20260502031005 69 257 0.0 0.0 0.00 0.00 0.00 54 1011.7
20260502030505 69 245 0.0 0.0 0.00 0.00 0.00 53 1011.5
20260502030005 69 236 0.0 0.0 0.00 0.00 0.00 54 1011.5
20260502025503 69 266 0.0 0.0 0.00 0.00 0.00 53 1011.3
20260502025003 69 263 0.0 0.0 0.00 0.00 0.00 53 1011.3
20260502024503 70 226 0.0 0.0 0.00 0.00 0.00 53 1011.2
20260502024003 70 220 0.0 0.0 0.00 0.00 0.00 53 1010.9
20260502023503 70 238 0.0 0.0 0.00 0.00 0.00 53 1010.7
20260502023007 70 248 0.0 0.0 0.00 0.00 0.00 53 1010.8
20260502022503 70 257 0.0 0.0 0.00 0.00 0.00 52 1010.8
20260502022002 71 238 0.0 0.0 0.00 0.00 0.00 52 1010.6
20260502021502 71 284 0.0 0.0 0.00 0.00 0.00 52 1010.7
20260502021002 71 264 0.0 0.0 0.00 0.00 0.00 52 1010.6
20260502020502 71 243 0.0 0.0 0.00 0.00 0.00 51 1010.6
20260502020002 72 275 0.0 0.0 0.00 0.00 0.00 51 1010.5
20260502015502 72 249 0.0 0.0 0.00 0.00 0.00 49 1010.5
20260502015002 72 257 0.0 0.0 0.00 0.00 0.00 49 1010.5
20260502014501 72 224 0.0 0.0 0.00 0.00 0.00 49 1010.5
20260502014000 73 261 0.0 0.0 0.00 0.00 0.00 47 1010.6
20260502013600 73 277 0.0 0.0 0.00 0.00 0.00 46 1010.6
20260502013101 74 290 0.0 0.0 0.00 0.00 0.00 45 1010.6
20260502012600 75 236 0.0 0.0 0.00 0.00 0.00 45 1010.6
20260502012100 75 260 0.0 0.0 0.00 0.00 0.00 44 1010.5
20260502011611 75 246 0.0 0.0 0.00 0.00 0.00 44 1010.5
20260502011103 76 258 0.0 0.0 0.00 0.00 0.00 43 1010.5
20260502010602 76 279 0.0 0.0 0.00 0.00 0.00 42 1010.5
20260502010100 77 276 0.0 0.0 0.00 0.00 0.00 42 1010.5
20260502005559 77 276 0.0 0.0 0.00 0.00 0.00 45 1010.5
20260502005102 77 276 0.0 0.0 0.00 0.00 0.00 41 1010.5
20260502004606 77 276 0.0 0.0 0.00 0.00 0.00 40 1010.6
20260502004059 77 275 0.0 0.0 0.00 0.00 0.00 39 1010.6
20260502003556 77 276 0.0 0.0 0.00 0.00 0.00 42 1010.6
20260502003058 77 276 0.0 0.0 0.00 0.00 0.00 40 1010.6
20260502002557 77 276 0.0 0.0 0.00 0.00 0.00 39 1010.6
20260502002055 77 276 0.0 0.0 0.00 0.00 0.00 42 1010.6
20260502001555 77 276 0.0 0.0 0.00 0.00 0.00 39 1010.7
20260502001059 77 276 0.0 0.0 0.00 0.00 0.00 40 1010.7
20260502000556 78 276 0.0 0.0 0.00 0.00 0.00 38 1010.7
20260502000112 78 276 0.0 0.0 0.00 0.00 0.00 38 1010.8
20260501235555 78 277 0.0 0.0 0.00 0.00 0.00 36 1010.7
20260501235053 79 286 0.0 0.0 0.00 0.00 0.00 36 1010.8
20260501234553 80 285 0.0 0.0 0.00 0.00 0.00 34 1010.9
20260501234055 80 285 0.0 0.0 0.00 0.00 0.00 34 1010.9
20260501233553 80 285 0.0 0.0 0.00 0.00 0.00 36 1011.0
20260501233052 81 285 0.0 0.0 0.00 0.00 0.00 33 1011.0
20260501232551 81 288 0.0 0.0 0.00 0.00 0.00 33 1011.0
20260501232054 81 254 0.0 0.0 0.00 0.00 0.00 35 1011.3
20260501231601 81 297 0.0 0.0 0.00 0.00 0.00 33 1011.3
20260501231050 81 299 0.0 0.0 0.00 0.00 0.00 33 1011.3
20260501230550 81 303 0.0 0.0 0.00 0.00 0.00 33 1011.5
20260501230049 81 279 0.0 0.0 0.00 0.00 0.00 33 1011.5
20260501225548 81 277 0.0 0.0 0.00 0.00 0.00 37 1011.7
20260501225046 80 290 0.0 0.0 0.00 0.00 0.00 37 1011.8
20260501224554 80 290 0.0 0.0 0.00 0.00 0.00 35 1011.9
20260501224046 80 290 0.0 0.0 0.00 0.00 0.00 36 1012.0
20260501223549 80 287 0.0 0.0 0.00 0.00 0.00 35 1012.1
20260501223045 80 287 0.0 0.0 0.00 0.00 0.00 34 1012.2
20260501222544 80 287 0.0 0.0 0.00 0.00 0.00 34 1012.2
20260501222047 80 287 0.0 0.0 0.00 0.00 0.00 38 1012.3
20260501221602 80 287 0.0 0.0 0.00 0.00 0.00 34 1012.3
20260501221048 80 287 0.0 0.0 0.00 0.00 0.00 34 1012.4
20260501220542 80 274 0.0 0.0 0.00 0.00 0.00 36 1012.5
20260501220045 80 306 0.0 0.0 0.00 0.00 0.00 33 1012.5
20260501215542 80 320 0.0 0.0 0.00 0.00 0.00 33 1012.6
20260501215041 81 320 0.0 0.0 0.00 0.00 0.00 33 1012.7
20260501214540 80 39 0.0 0.0 0.00 0.00 0.00 33 1012.7
20260501214038 80 49 0.0 0.0 0.00 0.00 0.00 35 1012.8
20260501213537 79 61 0.0 0.0 0.00 0.00 0.00 32 1012.9
20260501213040 79 342 0.0 0.0 0.00 0.00 0.00 32 1012.8
20260501212535 79 10 0.0 0.0 0.00 0.00 0.00 35 1012.9
20260501212035 78 12 0.0 0.0 0.00 0.00 0.00 34 1012.9
20260501211533 78 294 0.0 0.0 0.00 0.00 0.00 38 1013.0
20260501211032 78 293 0.0 0.0 0.00 0.00 0.00 38 1013.1
20260501210532 78 344 0.0 0.0 0.00 0.00 0.00 37 1013.2
20260501210031 77 329 0.0 0.0 0.00 0.00 0.00 38 1013.2
20260501205532 77 327 0.0 0.0 0.00 0.00 0.00 37 1013.2
20260501205029 76 355 0.0 0.0 0.00 0.00 0.00 35 1013.3
20260501204527 76 43 0.0 0.0 0.00 0.00 0.00 40 1013.4
20260501204026 75 275 0.0 0.0 0.00 0.00 0.00 43 1013.4
20260501203525 75 274 0.0 0.0 0.00 0.00 0.00 40 1013.5
20260501203026 75 279 0.0 0.0 0.00 0.00 0.00 40 1013.6
20260501202525 75 279 0.0 0.0 0.00 0.00 0.00 40 1013.7
20260501202025 76 274 0.0 0.0 0.00 0.00 0.00 39 1013.9
20260501201524 76 322 0.0 0.0 0.00 0.00 0.00 39 1013.9
20260501201023 76 33 0.0 0.0 0.00 0.00 0.00 39 1014.0
20260501200527 75 19 0.0 0.0 0.00 0.00 0.00 39 1014.0
20260501200021 75 60 0.0 0.0 0.00 0.00 0.00 38 1014.0
20260501195521 75 63 0.0 0.0 0.00 0.00 0.00 40 1014.1
20260501195019 75 52 0.0 0.0 0.00 0.00 0.00 40 1014.1
20260501194518 74 40 0.0 0.0 0.00 0.00 0.00 41 1014.1
20260501194016 73 44 0.0 0.0 0.00 0.00 0.00 41 1014.2
20260501193515 72 80 0.0 0.0 0.00 0.00 0.00 40 1014.2
20260501193027 71 9 0.0 0.0 0.00 0.00 0.00 44 1014.2
20260501192512 70 50 0.0 0.0 0.00 0.00 0.00 46 1014.2
20260501192011 69 323 0.0 0.0 0.00 0.00 0.00 47 1014.3
20260501191509 69 259 0.0 0.0 0.00 0.00 0.00 51 1014.4
20260501191008 68 246 0.0 0.0 0.00 0.00 0.00 52 1014.6
20260501190505 68 294 0.0 0.0 0.00 0.00 0.00 52 1014.7
20260501190017 67 294 0.0 0.0 0.00 0.00 0.00 53 1014.8
20260501185504 67 294 0.0 0.0 0.00 0.00 0.00 54 1014.9
20260501185003 67 295 0.0 0.0 0.00 0.00 0.00 54 1015.1
20260501184502 67 336 0.0 0.0 0.00 0.00 0.00 53 1015.1
20260501184001 67 337 0.0 0.0 0.00 0.00 0.00 52 1015.1
20260501183603 66 337 0.0 0.0 0.00 0.00 0.00 55 1015.3
20260501183105 66 337 0.0 0.0 0.00 0.00 0.00 52 1015.5
20260501182558 66 340 0.0 0.0 0.00 0.00 0.00 55 1015.4
20260501182058 66 340 0.0 0.0 0.00 0.00 0.00 52 1015.4
20260501181556 65 340 0.0 0.0 0.00 0.00 0.00 50 1015.5
20260501181059 65 340 0.0 0.0 0.00 0.00 0.00 50 1015.5
20260501180555 65 341 0.0 0.0 0.00 0.00 0.00 52 1015.5
20260501180054 65 346 0.0 0.0 0.00 0.00 0.00 50 1015.5
20260501175553 64 347 0.0 0.0 0.00 0.00 0.00 51 1015.6
20260501175051 64 355 0.0 0.0 0.00 0.00 0.00 54 1015.5
20260501174550 64 15 0.0 0.0 0.00 0.00 0.00 54 1015.6
20260501174049 63 26 0.0 0.0 0.00 0.00 0.00 59 1015.7
20260501173547 63 21 0.0 0.0 0.00 0.00 0.00 57 1015.7
20260501173046 62 21 0.0 0.0 0.00 0.00 0.00 57 1015.8
20260501172544 61 5 0.0 0.0 0.00 0.00 0.00 58 1015.9
20260501172043 61 350 0.0 0.0 0.00 0.00 0.00 59 1016.0
20260501171541 60 53 0.0 0.0 0.00 0.00 0.00 60 1016.0
20260501171040 60 55 0.0 0.0 0.00 0.00 0.00 59 1016.0
20260501170539 59 55 0.0 0.0 0.00 0.00 0.00 59 1016.0
20260501170038 59 55 0.0 0.0 0.00 0.00 0.00 61 1016.0
20260501165537 58 56 0.0 0.0 0.00 0.00 0.00 63 1016.0
20260501165036 58 56 0.0 0.0 0.00 0.00 0.00 63 1016.0
20260501164535 58 62 0.0 0.0 0.00 0.00 0.00 63 1016.0
20260501164033 57 69 0.0 0.0 0.00 0.00 0.00 62 1016.1